Location: Titusville
(28.6119°N, 80.8078°W)
Time: 17:53:22
(UTC-05:00)

N. Korean satellite - Visible Passes

Search period start: 16 December 2018 00:00
Search period end: 26 December 2018 00:00
Orbit: 456 x 511 km, 97.2° (Epoch: 15 December)

Date Brightness Start Highest point End Pass type
(mag) Time Alt. Az. Time Alt. Az. Time Alt. Az.
16 Dec 6.5 06:36:55 10° N 06:40:33 81° WNW 06:44:12 10° SSW visible
16 Dec 9.2 18:40:20 10° SSW 18:43:04 22° W 18:45:48 10° NW visible
17 Dec 8.1 06:12:33 10° NNE 06:16:00 40° E 06:19:28 10° S visible
17 Dec 7.3 18:15:06 10° S 18:18:26 54° W 18:21:49 10° NNW visible
18 Dec 9.7 05:48:48 10° NE 05:51:22 18° E 05:53:58 10° SE visible
19 Dec 10.0 19:01:38 10° WSW 19:02:49 11° W 19:04:00 10° WNW visible
20 Dec 6.7 06:32:01 10° NNE 06:35:41 86° ESE 06:39:22 10° S visible
20 Dec 8.9 18:35:14 10° SSW 18:38:07 26° W 18:41:03 10° NW visible
21 Dec 8.5 06:07:43 10° NNE 06:11:06 35° E 06:14:31 10° SSE visible
21 Dec 6.9 18:10:08 10° S 18:13:31 66° W 18:16:56 10° NNW visible
22 Dec 9.8 05:44:07 10° NE 05:46:28 16° E 05:48:48 10° SE visible
23 Dec 9.8 18:56:05 10° SW 18:57:50 13° W 18:59:36 10° WNW visible
24 Dec 6.9 06:27:06 10° NNE 06:30:46 72° E 06:34:28 10° S visible
24 Dec 8.6 18:30:06 10° SSW 18:33:09 30° W 18:36:14 10° NW visible
25 Dec 8.8 06:02:53 10° NE 06:06:10 30° E 06:09:28 10° SSE visible
25 Dec 6.6 18:05:07 10° S 18:08:32 80° W 18:12:00 10° NNW visible
